When you browse on this site, cookies collect data to enhance your experience and personalize the content and advertising you see.
Visit our Privacy Policy to learn more. By continuing to use the site, you agree to this use of cookies and data.
  • In Denmark
  • List of Countries
  • For 7 days
  • Water Temperature
  • Weather Map
  • Weather Widgets
  • user-avatar
    Login

    Hourly Weather Kapan

    Today, 14 November, Thursday

    Time Temperature Precipitation Wind Pressure Humidity
    00:00 +8°C° 0 mm 1 mps 688 mmHg 57%
    01:00 +8°C° 0 mm 1 mps 688 mmHg 57%
    02:00 +8°C° 0 mm 1 mps 688 mmHg 56%
    03:00 +6°C° 0 mm 0 mps 687 mmHg 55%
    04:00 +6°C° 0 mm 0 mps 687 mmHg 54%
    05:00 +6°C° 0 mm 0 mps 687 mmHg 53%
    06:00 +7°C° 0 mm 1 mps 687 mmHg 52%
    07:00 +8°C° 0 mm 1 mps 688 mmHg 49%
    08:00 +10°C° 0 mm 1 mps 688 mmHg 46%
    09:00 +11°C° 0 mm 1 mps 689 mmHg 43%
    10:00 +12°C° 0 mm 1 mps 689 mmHg 42%
    11:00 +13°C° 0 mm 2 mps 689 mmHg 41%
    12:00 +14°C° 0 mm 2 mps 689 mmHg 41%
    13:00 +13°C° 0 mm 2 mps 688 mmHg 43%
    14:00 +13°C° 0 mm 2 mps 688 mmHg 45%
    15:00 +13°C° 0 mm 2 mps 688 mmHg 47%
    16:00 +12°C° 0 mm 2 mps 688 mmHg 57%
    17:00 +10°C° 0 mm 1 mps 688 mmHg 68%
    18:00 +7°C° 0 mm 0 mps 688 mmHg 78%
    19:00 +7°C° 0 mm 0 mps 688 mmHg 79%
    20:00 +7°C° 0 mm 0 mps 689 mmHg 79%
    21:00 +7°C° 0 mm 0 mps 689 mmHg 80%
    22:00 +6°C° 0 mm 0 mps 689 mmHg 79%
    23:00 +6°C° 0 mm 0 mps 689 mmHg 78%

    Tomorrow, 15 November, Friday

    Time Temperature Precipitation Wind Pressure Humidity
    00:00 +6°C° 0 mm 0 mps 689 mmHg 77%
    01:00 +6°C° 0 mm 0 mps 689 mmHg 76%
    02:00 +5°C° 0 mm 0 mps 689 mmHg 74%
    03:00 +5°C° 0 mm 0 mps 689 mmHg 73%
    04:00 +5°C° 0 mm 0 mps 689 mmHg 72%
    05:00 +5°C° 0 mm 0 mps 688 mmHg 72%
    06:00 +5°C° 0 mm 0 mps 688 mmHg 71%
    07:00 +6°C° 0 mm 0 mps 689 mmHg 70%
    08:00 +8°C° 0 mm 1 mps 689 mmHg 69%
    09:00 +9°C° 0 mm 1 mps 690 mmHg 68%
    10:00 +9°C° 0 mm 1 mps 690 mmHg 69%
    11:00 +9°C° 0 mm 2 mps 689 mmHg 69%
    12:00 +9°C° 0 mm 2 mps 689 mmHg 70%
    13:00 +9°C° 0 mm 2 mps 689 mmHg 73%
    14:00 +8°C° 0 mm 2 mps 689 mmHg 76%
    15:00 +8°C° 0 mm 2 mps 689 mmHg 79%
    16:00 +7°C° 0 mm 2 mps 689 mmHg 81%
    17:00 +7°C° 0 mm 2 mps 689 mmHg 83%
    18:00 +6°C° 0 mm 2 mps 689 mmHg 85%
    19:00 +5°C° 0 mm 2 mps 690 mmHg 86%
    20:00 +5°C° 0 mm 2 mps 690 mmHg 86%
    21:00 +5°C° 0 mm 2 mps 690 mmHg 87%
    22:00 +4°C° 0 mm 2 mps 690 mmHg 87%
    23:00 +4°C° 0 mm 2 mps 690 mmHg 87%

    Day after tomorrow, 16 November, Saturday

    Time Temperature Precipitation Wind Pressure Humidity
    00:00 +5°C° 0 mm 1 mps 691 mmHg 88%
    01:00 +5°C° 0 mm 1 mps 691 mmHg 88%
    02:00 +4°C° 0 mm 1 mps 691 mmHg 88%
    03:00 +4°C° 0 mm 1 mps 691 mmHg 88%
    04:00 +4°C° 0 mm 1 mps 691 mmHg 89%
    05:00 +4°C° 0 mm 1 mps 691 mmHg 90%
    06:00 +4°C° 0 mm 1 mps 691 mmHg 91%
    07:00 +4°C° 0 mm 1 mps 692 mmHg 87%
    08:00 +4°C° 0 mm 1 mps 692 mmHg 84%
    09:00 +5°C° 0 mm 1 mps 693 mmHg 80%
    10:00 +5°C° 0 mm 2 mps 693 mmHg 73%
    11:00 +6°C° 0 mm 2 mps 693 mmHg 65%
    12:00 +7°C° 0 mm 3 mps 692 mmHg 57%
    13:00 +7°C° 0 mm 3 mps 692 mmHg 57%
    14:00 +7°C° 0 mm 2 mps 692 mmHg 57%
    15:00 +7°C° 0 mm 2 mps 692 mmHg 57%
    16:00 +6°C° 0 mm 2 mps 692 mmHg 63%
    17:00 +5°C° 0 mm 1 mps 692 mmHg 68%
    18:00 +4°C° 0 mm 1 mps 692 mmHg 74%
    19:00 +4°C° 0 mm 1 mps 692 mmHg 75%
    20:00 +4°C° 0 mm 1 mps 692 mmHg 76%
    21:00 +3°C° 0 mm 1 mps 692 mmHg 76%
    22:00 +3°C° 0 mm 1 mps 692 mmHg 76%
    23:00 +3°C° 0 mm 1 mps 692 mmHg 75%

    17 November, Sunday

    Time Temperature Precipitation Wind Pressure Humidity
    00:00 +3°C° 0 mm 1 mps 692 mmHg 75%
    01:00 +2°C° 0 mm 1 mps 692 mmHg 74%
    02:00 +2°C° 0 mm 1 mps 692 mmHg 73%
    03:00 +1°C° 0 mm 0 mps 692 mmHg 72%
    04:00 +2°C° 0 mm 1 mps 692 mmHg 72%
    05:00 +2°C° 0 mm 1 mps 692 mmHg 72%
    06:00 +1°C° 0 mm 1 mps 692 mmHg 73%
    07:00 +3°C° 0 mm 1 mps 692 mmHg 68%
    08:00 +4°C° 0 mm 1 mps 693 mmHg 62%
    09:00 +6°C° 0 mm 1 mps 693 mmHg 57%
    10:00 +6°C° 0 mm 1 mps 693 mmHg 54%
    11:00 +6°C° 0 mm 2 mps 692 mmHg 51%
    12:00 +7°C° 0 mm 2 mps 692 mmHg 47%
    13:00 +7°C° 0 mm 2 mps 692 mmHg 47%
    14:00 +7°C° 0 mm 2 mps 692 mmHg 48%
    15:00 +7°C° 0 mm 2 mps 691 mmHg 48%
    16:00 +6°C° 0 mm 2 mps 691 mmHg 55%
    17:00 +5°C° 0 mm 1 mps 691 mmHg 63%
    18:00 +4°C° 0 mm 1 mps 691 mmHg 71%
    19:00 +4°C° 0 mm 1 mps 692 mmHg 71%
    20:00 +4°C° 0 mm 1 mps 692 mmHg 71%
    21:00 +3°C° 0 mm 1 mps 692 mmHg 72%
    22:00 +3°C° 0 mm 1 mps 692 mmHg 72%
    23:00 +3°C° 0 mm 1 mps 692 mmHg 72%

    18 November, Monday

    Time Temperature Precipitation Wind Pressure Humidity
    00:00 +3°C° 0 mm 1 mps 691 mmHg 72%
    01:00 +3°C° 0 mm 1 mps 691 mmHg 73%
    02:00 +2°C° 0 mm 1 mps 691 mmHg 73%
    03:00 +1°C° 0 mm 0 mps 691 mmHg 73%
    04:00 +1°C° 0 mm 0 mps 691 mmHg 73%
    05:00 +2°C° 0 mm 1 mps 690 mmHg 73%
    06:00 +2°C° 0 mm 1 mps 690 mmHg 74%
    07:00 +3°C° 0 mm 1 mps 691 mmHg 67%
    08:00 +5°C° 0 mm 1 mps 691 mmHg 61%
    09:00 +6°C° 0 mm 1 mps 691 mmHg 55%
    10:00 +7°C° 0 mm 1 mps 691 mmHg 53%
    11:00 +7°C° 0 mm 2 mps 691 mmHg 50%
    12:00 +8°C° 0 mm 2 mps 691 mmHg 47%
    13:00 +8°C° 0 mm 2 mps 690 mmHg 48%
    14:00 +8°C° 0 mm 2 mps 690 mmHg 49%
    15:00 +8°C° 0 mm 2 mps 689 mmHg 51%
    16:00 +7°C° 0 mm 2 mps 689 mmHg 57%
    17:00 +7°C° 0 mm 1 mps 689 mmHg 64%
    18:00 +5°C° 0 mm 0 mps 689 mmHg 70%
    19:00 +4°C° 0 mm 0 mps 689 mmHg 70%
    20:00 +4°C° 0 mm 0 mps 689 mmHg 71%
    21:00 +4°C° 0 mm 0 mps 689 mmHg 71%
    22:00 +4°C° 0 mm 0 mps 689 mmHg 71%
    23:00 +3°C° 0 mm 0 mps 689 mmHg 72%

    19 November, Tuesday

    Time Temperature Precipitation Wind Pressure Humidity
    00:00 +3°C° 0 mm 0 mps 689 mmHg 72%
    01:00 +4°C° 0 mm 1 mps 689 mmHg 72%
    02:00 +4°C° 0 mm 1 mps 689 mmHg 73%
    03:00 +3°C° 0 mm 1 mps 688 mmHg 73%
    04:00 +3°C° 0 mm 1 mps 688 mmHg 72%
    05:00 +3°C° 0 mm 1 mps 688 mmHg 70%
    06:00 +3°C° 0 mm 1 mps 688 mmHg 69%
    07:00 +5°C° 0 mm 1 mps 689 mmHg 63%
    08:00 +5°C° 0 mm 0 mps 689 mmHg 57%
    09:00 +6°C° 0 mm 0 mps 690 mmHg 52%
    10:00 +8°C° 0 mm 1 mps 689 mmHg 50%
    11:00 +9°C° 0 mm 1 mps 689 mmHg 48%
    12:00 +9°C° 0 mm 2 mps 689 mmHg 46%
    13:00 +8°C° 0 mm 2 mps 689 mmHg 50%
    14:00 +8°C° 0 mm 2 mps 688 mmHg 54%
    15:00 +7°C° 0 mm 2 mps 688 mmHg 58%
    16:00 +6°C° 0.3 mm 2 mps 688 mmHg 68%
    17:00 +6°C° 0.3 mm 1 mps 688 mmHg 79%
    18:00 +5°C° 0.3 mm 1 mps 688 mmHg 89%
    19:00 +5°C° 0.3 mm 1 mps 688 mmHg 90%
    20:00 +5°C° 0.3 mm 1 mps 688 mmHg 91%
    21:00 +4°C° 0.3 mm 0 mps 688 mmHg 92%
    22:00 +5°C° 0.2 mm 1 mps 689 mmHg 92%
    23:00 +5°C° 0.2 mm 1 mps 689 mmHg 93%
    Show more